STARLINK-1564, 46058

Orbit data source: Space-Track

STARLINK-1564, 46058 is a payload satellite owned by SpaceX/Seattle (US) in LEO that was launched on Fri, 07 Aug 2020 UTC via an FALCON 9 launch vehicle from the Air Force Eastern Test Range (AFETR). Payload-class satellites include a variety of spacecraft equipped with specific instruments for various scientific and technological missions. These include communications satellites like Starlink; space stations such as the ISS; scientific satellites like the Hubble; Earth observation satellites from companies like Planet Labs, Umbra, and HawkEye 360; GPS; miniature CubeSats for education and research; and military/defense satellites.

Loading next visibility...
Identifier
46058, 2020-055AH
Orbit
LEO
Country
Flag of USUS
Related business
Manufacturer
SpaceX/Seattle
Mission
Operational Commercial Communications
Bus & Motor
STARLINK, Unknown motor
Mass
260 kg wet, ~248 kg dry
Launch date (UTC)
2020-08-07 (5 years ago)
Launch vehicle
FALCON 9
Launch site
Air Force Eastern Test Range (AFETR)
Object type
Payload
Rocket body
Debris
Shape & HBR
Box + 1 Pan, 10.1 m
Radar Cross Section
13.562 m², Large (>1 m²)

Expand to show TLE details & history
Last TLE update: 1 day ago

TLE from 1 day ago
0 STARLINK-1564
1 46058U 20055AH  25348.70263836 -.00000473  00000-0 -12857-4 0  9995
2 46058  53.0566 138.5976 0001657 123.9757 236.1390 15.06393664296219
Epoch: 2025-12-14T16:51Z
TLE epoch observation values (Epoch: 2025-12-14T16:51:47.954Z)
Latitude
0.00002°
Longitude
162.03604°
Altitude
548.75 km
Speed
7.588 km/s
True Right ascension
09h 14m 23s
True Declination
0° 00' 00"
Sunlit
Object was in full shadow at epoch
Visualization orbit readout
Latitude
Unknown
Longitude
Unknown
Altitude
Unknown
Speed
Unknown
Apparent Right ascension
Unknown
Apparent Declination
Unknown
Sunlit
N/A
Visualization observer readout
Local Sidereal Time
19:36:48
Azimuth
Unknown
Elevation
Unknown
Doppler factor
Unknown
Orbital elements
Apogee altitude
548.649 km
Perigee altitude
546.354 km
Semi-major axis
6,925.638 km
Eccentricity
0.00017
Inclination
53.0566°
RAAN
138.5976°
Arg. of periapsis
123.9757°
True anomaly
236.12323°
Mean anomaly
236.139°
Eccentric anomaly
236.13112°
Mean motion
3.76577 °/min
Orbital period
95.6 mins
BSTAR
-0.000012857
Loading maneuver chart data...
Computing Atmospheric mass density...
Loading historical data...
Loading historical data...
Loading historical data...
Loading historical data...
Loading historical data...
Loading historical data...
Loading historical data...

Documentation

Showing up to 5 results
|